Regional Weather Roundup
Issued by NWS

Home | Current Version | Previous Version | Text Only | Print | Product List | Glossary On
Versions: 1 2 3 4 5 6 7 8 9 10 11 12 13 14 15 16 17 18 19 20 21 22 23 24 25 26 27 28 29 30 31 32 33 34 35 36 37 38 39 40 41 42 43 44 45 46 47 48 49 50
000
ASUS43 KLSX 031157
RWRMO

WEATHER SUMMARY FOR MISSOURI
NATIONAL WEATHER SERVICE SPRINGFIELD MO
700 AM CDT THU SEP 03 2015

NOTE: "FAIR" INDICATES FEW OR NO CLOUDS BELOW 12,000 FEET WITH NO
       SIGNIFICANT WEATHER AND/OR OBSTRUCTIONS TO VISIBILITY.
       CURRENT SKY AND/OR WEATHER CONDITIONS ARE NOT AVAILABLE FOR
       CHILLICOTHE AND FARMINGTON.

MOZ001>031-035>038-043-044-053-054-031300-
...NORTHERN AND WESTERN MISSOURI...

CITY           SKY/WX    TMP DP  RH WIND       PRES   REMARKS
KANSAS CTY INT PTCLDY    74  67  78 S13       29.94S
6HR MIN TEMP:  72; 6HR MAX TEMP:  76;

LEE`S SUMMIT   CLEAR     73  66  78 S10       29.96S
6HR MIN TEMP:  73; 6HR MAX TEMP:  77;

ST JOSEPH      PTCLDY    73  68  84 S8        29.92R
6HR MIN TEMP:  71; 6HR MAX TEMP:  74;


$$
MOZ066>068-077>081-088>096-101>105-031300-
...SOUTHWEST MISSOURI...

CITY           SKY/WX    TMP DP  RH WIND       PRES   REMARKS
SPRINGFIELD    CLEAR     70  65  84 S6        30.02R
6HR MIN TEMP:  69; 6HR MAX TEMP:  73;

JOPLIN         CLEAR     69  66  90 S7        30.00R
6HR MIN TEMP:  69; 6HR MAX TEMP:  74;


$$
MOZ032>034-039>042-045>050-055>058-069>072-031300-
...CENTRAL MISSOURI...

CITY           SKY/WX    TMP DP  RH WIND       PRES   REMARKS
COLUMBIA       NOT AVBL
JEFFERSON CITY MOCLDY    72  67  84 E5        29.99R
6HR MIN TEMP:  69; 6HR MAX TEMP:  73;

ROLLA          PTCLDY    68  66  93 S7        30.01R
6HR MIN TEMP:  67; 6HR MAX TEMP:  73;

SEDALIA        PTCLDY    72  66  81 S8        29.99R
6HR MIN TEMP:  71; 6HR MAX TEMP:  74;


$$
MOZ051-052-059>065-031300-
...EAST CENTRAL MISSOURI...

CITY           SKY/WX    TMP DP  RH WIND       PRES   REMARKS
ST LOUIS INTL  MOCLDY    78  68  71 CALM      30.01R
6HR MIN TEMP:  76; 6HR MAX TEMP:  80;


$$
MOZ072>076-082>087-097>100-106>115-031300-
...SOUTH CENTRAL AND SOUTHEAST MISSOURI...

CITY           SKY/WX    TMP DP  RH WIND       PRES   REMARKS
CAPE GIRARDEAU MOCLDY    66  65  96 CALM      30.03R FOG
6HR MIN TEMP:  65; 6HR MAX TEMP:  70;

POPLAR BLUFF   CLEAR     66  65  96 CALM      30.02R FOG
6HR MIN TEMP:  66; 6HR MAX TEMP:  71;

WEST PLAINS    PTCLDY    66  64  93 CALM      30.06S FOG
6HR MIN TEMP:  65; 6HR MAX TEMP:  73;


$$



USA.gov is the U.S. government's official web portal to all federal, state and local government web resources and services.